Home > Weather > Vilnius > Past weeks

Flag for Lithuania Weather for the Past 2 Weeks in Vilnius, Lithuania

Now
63 °F

Broken clouds.


Feels Like: 63 °F
Forecast: 46 / 64 °F
Wind: 9 mph from Northeast

Location: Vilnius Airport

Current Time: May 2, 2016 at 3:48:52 PM

Latest Report: May 2, 2016 at 2:50 PM


Visibility: N/A

Pressure: 30.18 "Hg

Humidity: 56%

Dew Point: 46 °F

Location of VilniusLocation

Historic Weather in Vilnius — Graph

°F

Vilnius Temperature Yesterday

Maximum temperature yesterday: 57 °F (at 2:20 PM)
Minimum temperature yesterday: 46 °F (at 12:20 AM)
Average temperature yesterday: 51 °F

High & Low Weather Summary for the Past Weeks

 TemperatureHumidityPressure
High63 °F (Apr 17, 4:50 PM)100% (Apr 17, 6:50 PM)30.27 "Hg (Apr 17, 6:50 PM)
Low30 °F (Apr 27, 3:20 AM)34% (Apr 21, 2:20 PM)29.56 "Hg (Apr 22, 10:20 AM)
Average43 °F78%29.90 "Hg
* Reported Apr 17 2:20 PM — May 2 2:50 PM, Vilnius, Weather by CustomWeather, © 2016

Note: Actual official high and low records may vary slightly from our data, if they occured in-between our weather recording intervals... More about our weather records

Advertising

Vilnius Weather History for the Previous 24 Hours

Scroll right to see more
 ConditionsComfort  
Time TempWeatherWind HumidityBarometerVisibility
2:50 PM
Mon, May 2
63 °FBroken clouds.9 mph56%30.18 "HgN/A
2:20 PM63 °FScattered clouds.6 mph52%30.18 "HgN/A
1:50 PM63 °FScattered clouds.3 mph52%30.21 "HgN/A
1:20 PM61 °FScattered clouds.2 mph59%30.21 "HgN/A
12:20 PM57 °FScattered clouds.5 mph72%30.21 "HgN/A
11:50 AM57 °FPassing clouds.6 mph77%30.24 "HgN/A
11:20 AM54 °FScattered clouds.5 mph88%30.24 "HgN/A
10:50 AM52 °FPartly sunny.2 mph100%30.24 "Hg5 mi
10:20 AM48 °FFog.1 mph100%30.24 "Hg2 mi
9:20 AM46 °FFog.3 mph100%30.24 "Hg1 mi
8:20 AM46 °FFog.3 mph100%30.24 "Hg1 mi
7:50 AM46 °FFog.3 mph93%30.24 "Hg0 mi
7:20 AM45 °FFog.5 mph100%30.24 "Hg0 mi
6:50 AM45 °FFog.2 mph100%30.24 "Hg0 mi
6:20 AM45 °FFog.5 mph100%30.21 "Hg0 mi
5:50 AM43 °FFog.2 mph100%30.21 "Hg0 mi
5:20 AM45 °FFog.2 mph100%30.24 "Hg0 mi
4:50 AM45 °FFog.3 mph100%30.24 "Hg0 mi
4:20 AM45 °FFog.5 mph100%30.24 "Hg0 mi
3:50 AM45 °FFog.3 mph100%30.24 "Hg0 mi
3:20 AM45 °FFog.5 mph100%30.24 "Hg0 mi
2:50 AM45 °FFog.3 mph100%30.24 "Hg1 mi
1:56 AM46 °FFog.3 mph93%30.24 "Hg0 mi
1:20 AM46 °FFog.3 mph93%30.24 "Hg1 mi
12:50 AM46 °FFog.5 mph93%30.24 "Hg1 mi
12:20 AM46 °FFog.2 mph93%30.24 "Hg3 mi
11:50 PM
Sun, May 1
48 °FClear.2 mph87%30.24 "Hg6 mi
11:20 PM48 °FPartly cloudy.3 mph87%30.24 "HgN/A
10:50 PM48 °FPartly cloudy.3 mph94%30.24 "HgN/A
10:20 PM50 °FPartly cloudy.5 mph88%30.24 "HgN/A
9:50 PM50 °FBroken clouds.3 mph88%30.24 "HgN/A
9:20 PM52 °FBroken clouds.5 mph82%30.21 "HgN/A
8:50 PM52 °FBroken clouds.5 mph82%30.21 "HgN/A
8:20 PM54 °FBroken clouds.6 mph77%30.21 "HgN/A
7:50 PM55 °FBroken clouds.8 mph72%30.21 "HgN/A
7:20 PM55 °FBroken clouds.8 mph77%30.21 "HgN/A
6:50 PM57 °FBroken clouds.7 mph67%30.21 "HgN/A
6:20 PM55 °FBroken clouds.8 mph77%30.21 "HgN/A
5:50 PM57 °FBroken clouds.10 mph72%30.21 "HgN/A
5:20 PM57 °FBroken clouds.9 mph72%30.21 "HgN/A
4:50 PM57 °FBroken clouds.9 mph72%30.21 "HgN/A
4:20 PM57 °FPartly sunny.9 mph72%30.21 "HgN/A
3:50 PM57 °FPartly sunny.8 mph67%30.21 "HgN/A
3:20 PM57 °FPartly sunny.8 mph67%30.21 "HgN/A
Weather by CustomWeather, © 2016

See weather overviewHow to use our weather pages